Total_Precipitation_Accumulation
0.05 0.05 0.04 0.07 0.08 0.08 0.08 0.06 0.06 0.04 0.05 0.08 0.14 0.20 0.24 0.25 0.20 0.17 0.26 0.32 0.41 0.77
0.07 0.07 0.06 0.05 0.08 0.12 0.13 0.12 0.11 0.11 0.09 0.08 0.13 0.18 0.23 0.22 0.19 0.21 0.19 0.21 0.31 0.45
0.14 0.13 0.14 0.10 0.09 0.12 0.15 0.16 0.14 0.11 0.08 0.10 0.12 0.17 0.26 0.25 0.22 0.20 0.20 0.21 0.21 0.33
0.18 0.21 0.16 0.29 0.21 0.14 0.20 0.19 0.19 0.16 0.10 0.09 0.09 0.13 0.21 0.23 0.25 0.27 0.19 0.22 0.21 0.18
0.26 0.26 0.30 0.23 0.50 0.34 0.24 0.36 0.23 0.21 0.17 0.12 0.09 0.10 0.14 0.18 0.23 0.25 0.26 0.18 0.23 0.18
0.27 0.27 0.30 0.34 0.27 0.62 0.55 0.44 0.46 0.32 0.32 0.24 0.13 0.10 0.09 0.11 0.16 0.24 0.23 0.29 0.22 0.18
0.21 0.33 0.28 0.33 0.35 0.35 0.76 0.63 0.48 0.51 0.45 0.46 0.29 0.14 0.09 0.11 0.15 0.17 0.25 0.25 0.33 0.25
0.06 0.21 0.30 0.28 0.35 0.35 0.37 0.78 0.59 0.55 0.52 0.55 0.61 0.38 0.24 0.12 0.13 0.15 0.16 0.21 0.24 0.29
0.01 0.04 0.16 0.23 0.32 0.37 0.33 0.34 0.68 0.52 0.56 0.51 0.57 0.71 0.52 0.28 0.15 0.15 0.14 0.15 0.18 0.21
0.00 0.01 0.03 0.10 0.19 0.37 0.40 0.34 0.33 0.57 0.51 0.52 0.41 0.54 0.65 0.56 0.30 0.17 0.16 0.10 0.12 0.18
0.02 0.02 0.01 0.02 0.07 0.16 0.32 0.42 0.33 0.34 0.50 0.57 0.43 0.48 0.62 0.72 0.60 0.37 0.14 0.14 0.08 0.09
0.04 0.06 0.02 0.03 0.03 0.06 0.16 0.22 0.35 0.28 0.34 0.51 0.54 0.44 0.56 0.68 0.76 0.80 0.41 0.13 0.18 0.10
0.06 0.10 0.07 0.04 0.04 0.04 0.09 0.15 0.18 0.26 0.26 0.44 0.48 0.53 0.54 0.65 0.74 0.78 0.93 0.48 0.19 0.31
0.07 0.11 0.07 0.06 0.04 0.05 0.05 0.08 0.12 0.16 0.17 0.35 0.47 0.50 0.59 0.67 0.76 0.76 0.75 1.00 0.50 0.29